Weather reports worldwide

Advertisment
Frankfurt/Main, Germany (10637): temperature & dewpoint: 01.08.2020 02:00:00 - 07.08.2020 02:00:00 (CEST)Frankfurt/Main, Germany (10637): temperature 5cm & temperature -5cm: 01.08.2020 02:00:00 - 07.08.2020 02:00:00 (CEST)Frankfurt/Main, Germany (10637): temperature -20cm & temperature -100cm: 01.08.2020 02:00:00 - 07.08.2020 02:00:00 (CEST)Frankfurt/Main, Germany (10637): wind speed & gusts: 01.08.2020 02:00:00 - 07.08.2020 02:00:00 (CEST)Frankfurt/Main, Germany (10637): wind direction: 01.08.2020 02:00:00 - 07.08.2020 02:00:00 (CEST)Frankfurt/Main, Germany (10637): reduced air pressure: 01.08.2020 02:00:00 - 07.08.2020 02:00:00 (CEST)Frankfurt/Main, Germany (10637): visibility: 01.08.2020 02:00:00 - 07.08.2020 02:00:00 (CEST)Frankfurt/Main, Germany (10637): sunshine duration: 01.08.2020 02:00:00 - 07.08.2020 02:00:00 (CEST)Frankfurt/Main, Germany (10637): precipitation: 01.08.2020 02:00:00 - 07.08.2020 02:00:00 (CEST)
Date & Time tt [°C] td [°C] tt 5cm [°C] tt -5cm [°C] tt -20cm [°C] tt -100cm [°C] ff [km/h] ff [kn] fx [km/h] fx [kn] dd ppp [hPa] vv [km] sd [min] rr [mm]
07.08.2020 02:00:00 20,1 11,8 16,9 23,7 26,6 22,2 8 4 11 6 ENE 1020,1 10 0 0,0
07.08.2020 01:00:00 19,7 11,9 17,3 24,5 27,2 22,2 6 3 9 5 NE 1020,1 55 0 0,0
07.08.2020 00:00:00 20,7 12,3 17,8 25,6 27,8 22,2 5 3 13 7 NNW 1020,0 10 0 0,0
06.08.2020 23:00:00 22,8 11,9 20,5 26,9 28,3 22,1 7 4 15 8 N 1019,7 60 0 0,0
06.08.2020 22:00:00 24,8 11,2 21,9 28,5 28,9 22,1 5 3 15 8 E 1019,3 10 0 0,0
06.08.2020 21:00:00 28,7 10,3 26,8 30,7 29,4 22,1 11 6 23 12 E 1018,7 10 50 0,0
06.08.2020 20:00:00 29,9 10,3 30,5 33,2 29,6 22,1 10 5 18 10 E 1018,4 75 60 0,0
06.08.2020 19:00:00 30,4 10,3 33,5 35,2 29,5 22,1 11 6 22 12 E 1018,3 10 60 0,0
06.08.2020 18:00:00 30,8 10,1 34,1 36,9 29,2 22,1 15 8 23 13 E 1018,3 75 60 0,0
06.08.2020 17:00:00 30,3 9,8 35,7 37,7 28,7 22,1 13 7 28 15 SE 1018,5 10 60 0,0
06.08.2020 16:00:00 31,2 10,4 36,0 37,9 27,9 22,1 15 8 28 15 ESE 1018,9 10 60 0,0
06.08.2020 15:00:00 29,5 10,4 36,1 37,2 26,9 22,1 9 5 22 12 - 1019,2 10 60 0,0
06.08.2020 14:00:00 28,3 9,6 34,1 35,8 25,9 22,1 15 8 37 20 ESE 1019,7 10 60 0,0
06.08.2020 13:00:00 27,7 9,8 32,4 33,8 24,9 22,1 9 5 27 15 NE 1020,1 10 60 0,0
06.08.2020 12:00:00 26,7 10,2 31,0 31,1 23,9 22,1 11 6 24 13 E 1020,7 55 60 0,0
06.08.2020 11:00:00 25,1 10,2 29,7 28,1 23,1 22,1 11 6 19 10 E 1020,8 50 60 0,0
06.08.2020 10:00:00 22,9 10,3 26,5 24,6 22,6 22,1 9 5 18 10 NE 1021,1 10 60 0,0
06.08.2020 09:00:00 19,6 10,1 22,5 21,4 22,4 22,1 8 5 15 8 NE 1021,2 45 60 0,0
06.08.2020 08:00:00 17,6 9,8 18,9 19,5 22,6 22,1 8 5 13 7 N 1020,9 50 60 0,0
06.08.2020 07:00:00 15,9 9,7 15,9 18,9 22,9 22,1 8 4 11 6 NE 1020,5 55 25 0,0
06.08.2020 06:00:00 15,9 9,5 14,8 19,1 23,3 22,1 9 5 15 8 N 1020,1 60 0 0,0
06.08.2020 05:00:00 13,5 9,4 11,5 19,5 23,8 22,0 5 3 9 5 ENE 1019,7 10 0 0,0
06.08.2020 04:00:00 13,5 9,2 11,5 20,2 24,2 22,0 6 3 8 4 NE 1019,6 60 0 0,0
06.08.2020 03:00:00 14,5 9,5 12,4 20,9 24,8 22,0 2 1 4 2 ENE 1019,4 60 0 0,0
06.08.2020 02:00:00 15,1 9,1 13,3 21,7 25,3 22,0 2 1 5 3 - 1019,3 10 0 0,0
06.08.2020 01:00:00 16,4 9,0 14,2 22,6 25,9 22,0 2 1 8 4 - 1019,0 10 0 0,0
06.08.2020 00:00:00 18,1 8,8 15,9 23,7 26,5 22,0 5 3 13 7 WSW 1018,5 60 0 0,0
05.08.2020 23:00:00 19,8 8,2 16,6 25,0 27,1 22,0 9 5 21 11 SSE 1018,2 60 0 0,0
05.08.2020 22:00:00 22,5 8,1 18,5 26,6 27,8 22,0 9 5 24 13 SSE 1017,6 10 0 0,0
05.08.2020 21:00:00 25,5 6,7 22,8 29,1 28,2 22,0 14 7 29 16 ESE 1016,9 60 52 0,0
05.08.2020 20:00:00 27,3 6,6 29,2 31,8 28,5 22,0 9 5 19 10 ESE 1016,5 55 60 0,0
05.08.2020 19:00:00 27,9 6,6 31,0 34,0 28,5 22,0 8 4 33 18 - 1016,3 10 60 0,0
05.08.2020 18:00:00 27,9 7,1 32,1 35,5 28,2 22,1 9 5 26 14 - 1016,4 10 60 0,0
05.08.2020 17:00:00 27,9 8,0 35,6 36,0 27,6 22,1 4 2 26 14 - 1016,6 10 54 0,0
05.08.2020 16:00:00 27,2 8,1 33,4 37,1 26,8 22,1 9 5 29 16 - 1016,9 10 60 0,0
05.08.2020 15:00:00 27,2 8,0 33,1 36,3 25,8 22,1 11 6 27 15 ESE 1017,2 50 60 0,0
05.08.2020 14:00:00 26,4 7,7 32,3 35,0 24,6 22,1 7 4 24 13 WSW 1017,9 50 60 0,0
05.08.2020 13:00:00 25,4 8,1 32,9 32,8 23,4 22,1 16 9 27 14 SSW 1018,4 10 60 0,0
05.08.2020 12:00:00 24,2 9,0 29,9 30,0 22,3 22,1 12 6 21 11 S 1018,6 50 60 0,0
05.08.2020 11:00:00 22,5 11,2 27,1 26,5 21,4 22,1 5 3 17 9 - 1019,0 10 60 0,0
05.08.2020 10:00:00 20,2 11,3 23,4 22,9 20,8 22,1 6 4 13 7 SSW 1019,3 40 60 0,0
05.08.2020 09:00:00 17,6 11,7 20,0 19,6 20,6 22,1 9 5 13 7 S 1019,4 10 60 0,0
05.08.2020 08:00:00 15,9 10,8 16,3 17,2 20,7 22,1 2 1 5 3 - 1019,2 10 60 0,0
05.08.2020 07:00:00 11,4 9,1 12,0 16,4 21,0 22,1 3 1 5 3 S 1019,2 50 18 0,0
05.08.2020 06:00:00 10,5 8,8 9,7 16,7 21,4 22,1 3 2 5 3 W 1018,8 50 0 0,0
05.08.2020 05:00:00 10,9 9,1 9,8 17,2 21,8 22,1 4 2 5 3 SW 1018,5 10 0 0,0
05.08.2020 04:00:00 11,7 9,2 10,5 17,7 22,2 22,1 4 2 8 4 SW 1018,4 10 0 0,0
05.08.2020 03:00:00 12,3 9,2 10,5 18,3 22,7 22,1 3 2 5 3 SSW 1018,0 60 0 0,0
05.08.2020 02:00:00 12,9 8,6 11,4 19,0 23,1 22,2 4 2 9 5 WSW 1017,9 60 0 0,0
05.08.2020 01:00:00 14,4 8,5 12,5 20,0 23,6 22,2 5 3 11 6 S 1017,8 10 0 0,0
05.08.2020 00:00:00 15,9 8,4 14,7 20,8 24,1 22,2 7 4 11 6 W 1017,7 60 0 0,0
04.08.2020 23:00:00 16,2 9,1 14,2 22,0 24,7 22,2 4 2 15 8 ENE 1017,4 60 0 0,0
04.08.2020 22:00:00 17,5 8,4 15,5 23,2 25,2 22,2 9 5 22 12 NW 1017,2 10 0 0,0
04.08.2020 21:00:00 21,4 7,0 18,8 25,5 25,5 22,2 9 5 22 12 NW 1016,3 10 29 0,0
04.08.2020 20:00:00 24,3 6,5 25,0 27,0 25,7 22,2 9 5 15 8 NW 1016,0 65 15 0,0
04.08.2020 19:00:00 23,7 6,4 23,9 28,5 25,8 22,3 5 3 18 10 WNW 1015,6 10 22 0,0
04.08.2020 18:00:00 23,9 6,9 25,4 30,1 25,6 22,3 12 7 26 14 W 1015,5 65 28 0,0
04.08.2020 17:00:00 24,9 6,6 29,8 31,9 25,0 22,3 15 8 25 14 W 1015,6 10 41 0,0
04.08.2020 16:00:00 24,2 6,3 30,4 31,2 24,4 22,3 15 8 35 19 SW 1015,7 10 40 0,0
04.08.2020 15:00:00 22,3 7,9 24,1 29,0 23,9 22,3 19 10 28 15 WNW 1016,1 65 17 0,0
04.08.2020 14:00:00 22,8 7,6 25,4 30,5 22,9 22,4 16 9 29 16 WNW 1015,8 65 42 0,0
04.08.2020 13:00:00 21,7 7,9 23,3 27,1 22,2 22,4 13 7 23 13 NW 1015,7 65 22 0,0
04.08.2020 12:00:00 21,5 8,5 23,1 26,7 21,4 22,4 13 7 25 14 NNE 1015,4 65 47 0,0
04.08.2020 11:00:00 21,1 7,7 24,2 23,1 20,8 22,4 13 7 24 13 N 1015,5 10 55 0,0
04.08.2020 10:00:00 19,6 8,6 21,7 20,5 20,4 22,4 16 9 26 14 N 1015,6 65 60 0,0
04.08.2020 09:00:00 18,4 9,1 19,6 18,4 20,3 22,4 11 6 23 13 N 1015,2 65 60 0,0
04.08.2020 08:00:00 17,4 9,9 17,9 17,2 20,4 22,5 12 6 18 10 NNW 1014,7 65 23 0,0
04.08.2020 07:00:00 16,3 9,5 15,6 16,4 20,7 22,5 10 5 17 9 N 1014,1 65 0 0,0
04.08.2020 06:00:00 16,4 8,9 15,1 16,5 21,0 22,5 8 5 16 9 N 1013,6 65 0 0,0
04.08.2020 05:00:00 16,8 9,1 15,3 17,0 21,3 22,5 11 6 22 12 N 1013,2 65 0 0,0
04.08.2020 04:00:00 17,9 8,0 16,8 17,5 21,7 22,5 15 8 26 14 N 1012,8 10 0 0,0
04.08.2020 03:00:00 16,6 10,9 15,4 18,1 22,0 22,5 13 7 22 12 NNE 1012,7 60 0 0,0
04.08.2020 02:00:00 18,2 9,5 16,0 18,9 22,3 22,5 13 7 18 10 N 1012,3 10 0 0,0
04.08.2020 01:00:00 14,9 14,0 14,9 19,2 22,6 22,5 2 1 5 3 W 1012,2 50 0 0,0
04.08.2020 00:00:00 15,1 14,1 15,2 19,5 23,0 22,6 4 2 9 5 SSW 1012,0 50 0 0,0
03.08.2020 23:00:00 15,9 14,6 15,5 20,0 23,4 22,6 3 2 9 5 SSE 1011,7 50 0 0,0
03.08.2020 22:00:00 16,4 14,3 16,3 20,4 23,9 22,6 4 2 14 8 SW 1011,5 45 0 0,0
03.08.2020 21:00:00 16,6 14,0 16,2 21,4 24,4 22,6 9 5 24 13 SW 1010,9 10 0 0,5
03.08.2020 20:00:00 17,8 15,2 17,6 23,2 24,9 22,6 11 6 22 12 N 1010,6 10 0 0,3
03.08.2020 19:00:00 19,5 13,5 17,2 25,6 25,1 22,7 11 6 27 14 ENE 1010,4 10 0 1,1
03.08.2020 18:00:00 23,5 9,7 25,1 29,0 24,8 22,7 16 9 29 16 NNE 1010,2 10 35 0,0
03.08.2020 17:00:00 23,5 9,6 26,2 28,9 24,3 22,7 16 9 24 13 NNE 1010,0 10 27 0,0
03.08.2020 16:00:00 23,2 10,2 25,7 28,1 23,8 22,7 10 5 24 13 NNW 1010,5 50 4 0,0
03.08.2020 15:00:00 22,4 10,4 25,1 27,6 23,2 22,7 11 6 21 11 N 1011,1 10 20 0,0
03.08.2020 14:00:00 22,1 11,3 25,6 25,3 22,7 22,8 9 5 20 11 - 1011,7 10 0 0,0
03.08.2020 13:00:00 21,0 11,6 23,4 24,1 22,4 22,8 8 4 24 13 NE 1012,3 10 0 0,0
03.08.2020 12:00:00 21,0 10,6 23,1 23,2 22,0 22,8 14 8 22 12 NNE 1012,5 50 0 0,0
03.08.2020 11:00:00 20,2 12,4 22,2 22,6 21,7 22,8 13 7 22 12 NE 1012,8 10 12 0,0
03.08.2020 10:00:00 19,0 12,8 20,2 20,2 21,6 22,8 16 9 22 12 N 1013,0 10 3 0,0
03.08.2020 09:00:00 18,3 12,8 18,8 19,2 21,6 22,8 11 6 19 10 N 1013,4 50 0 0,0
03.08.2020 08:00:00 17,9 12,6 17,9 18,5 21,7 22,8 9 5 21 11 N 1013,2 10 0 0,0
03.08.2020 07:00:00 17,3 13,2 16,6 18,3 21,9 22,8 9 5 15 8 NNE 1013,3 50 0 0,0
03.08.2020 06:00:00 16,1 12,7 15,5 18,1 22,2 22,8 9 5 15 8 N 1013,2 10 0 0,0
03.08.2020 05:00:00 15,2 12,7 14,2 18,3 22,4 22,9 7 4 18 10 N 1013,2 50 0 0,0
03.08.2020 04:00:00 15,8 12,5 14,2 18,7 22,8 22,9 10 5 15 8 N 1013,7 50 0 0,0
03.08.2020 03:00:00 18,5 12,7 17,5 19,0 23,1 22,9 11 6 16 9 N 1013,8 10 0 0,0
03.08.2020 02:00:00 19,1 12,7 17,8 19,4 23,5 22,9 12 6 22 12 NNE 1014,1 50 0 0,0
03.08.2020 01:00:00 17,4 12,6 15,8 19,8 23,8 22,9 9 5 26 14 NNW 1014,2 10 0 0,0
03.08.2020 00:00:00 19,8 11,8 17,6 20,4 24,3 22,9 13 7 21 11 N 1013,6 10 0 0,0
02.08.2020 23:00:00 21,3 11,0 19,8 21,2 24,7 22,9 15 8 23 13 NW 1013,3 10 0 0,0
02.08.2020 22:00:00 21,3 10,5 19,0 22,2 25,1 22,9 10 5 27 14 NNW 1013,2 50 0 0,0
02.08.2020 21:00:00 23,6 10,0 21,9 23,6 25,4 22,9 12 7 29 15 NNW 1012,8 60 26 0,0
02.08.2020 20:00:00 25,0 9,4 24,5 25,0 25,6 22,9 15 8 26 14 NNW 1012,5 70 41 0,0
02.08.2020 19:00:00 26,0 9,5 27,8 26,6 25,6 22,9 16 9 30 16 NNW 1012,4 70 60 0,0
02.08.2020 18:00:00 26,5 9,6 29,3 26,0 25,6 22,9 19 11 32 17 NW 1012,6 70 49 0,0
02.08.2020 17:00:00 25,9 10,2 26,6 25,7 25,6 22,9 18 10 34 18 NNW 1012,7 10 8 0,0
02.08.2020 16:00:00 26,6 11,6 27,4 26,9 25,6 22,9 5 3 23 12 - 1012,6 10 4 0,0
02.08.2020 15:00:00 25,3 13,0 27,1 27,3 25,3 22,9 6 3 21 11 WNW 1013,3 65 3 0,0
02.08.2020 14:00:00 25,0 12,9 27,6 28,2 24,9 22,9 8 4 16 9 - 1013,6 10 26 0,0
02.08.2020 13:00:00 23,3 13,6 26,2 25,8 24,6 22,9 8 4 18 10 WNW 1014,5 10 15 0,0
02.08.2020 12:00:00 22,0 14,6 24,1 24,0 24,5 22,9 11 6 33 18 W 1015,0 10 6 0,0
02.08.2020 11:00:00 20,2 15,7 20,3 22,8 24,6 22,9 9 5 47 25 WNW 1014,6 45 3 0,2
02.08.2020 10:00:00 21,9 15,1 22,2 23,0 24,7 22,9 8 4 31 17 NNW 1014,2 50 0 0,0
02.08.2020 09:00:00 21,0 16,2 21,0 22,6 24,9 22,9 22 12 37 20 NW 1013,8 10 0 0,0
02.08.2020 08:00:00 20,7 17,5 20,6 22,6 25,2 22,9 13 7 21 11 WNW 1013,2 10 0 0,0
02.08.2020 07:00:00 20,0 18,5 19,6 22,4 25,6 22,9 13 7 25 14 NW 1013,0 25 0 0,0
02.08.2020 06:00:00 20,2 18,5 19,5 23,0 26,0 22,9 14 8 22 12 NW 1012,3 17 0 0,0
02.08.2020 05:00:00 20,4 19,5 20,4 23,9 26,3 22,8 6 4 24 13 N 1012,8 25 0 1,1
02.08.2020 04:00:00 21,2 18,8 20,2 25,1 26,6 22,8 16 9 23 13 NW 1012,1 9 0 4,2
02.08.2020 03:00:00 22,4 16,0 21,7 25,3 26,9 22,8 9 5 13 7 NNW 1012,3 40 0 0,0
02.08.2020 02:00:00 22,6 15,9 21,5 25,6 27,2 22,8 5 3 11 6 ENE 1012,3 40 0 0,0
02.08.2020 01:00:00 23,3 15,5 22,2 26,1 27,6 22,8 8 4 15 8 ENE 1012,3 45 0 0,0
02.08.2020 00:00:00 24,7 15,7 23,1 26,9 27,9 22,8 6 3 11 6 NNW 1012,4 45 0 0,0
01.08.2020 23:00:00 24,9 16,1 23,7 27,7 28,2 22,8 2 1 15 8 WSW 1012,5 45 0 0,0
01.08.2020 22:00:00 25,9 15,6 24,1 28,7 28,6 22,8 9 5 13 7 ESE 1012,6 10 0 0,0
01.08.2020 21:00:00 27,4 14,8 25,7 30,4 28,7 22,8 5 3 11 6 S 1012,6 40 12 0,0
01.08.2020 20:00:00 30,9 13,6 31,6 32,3 28,6 22,8 8 4 13 7 S 1012,2 10 60 0,0
01.08.2020 19:00:00 31,5 13,5 35,1 33,3 28,3 22,7 8 4 13 7 - 1012,3 10 60 0,0
01.08.2020 18:00:00 31,2 13,9 35,7 32,8 27,9 22,7 5 3 13 7 SW 1013,1 55 56 0,0
01.08.2020 17:00:00 28,8 16,4 31,8 29,5 27,9 22,7 8 4 25 14 NW 1013,6 55 3 0,0
01.08.2020 16:00:00 27,2 16,4 27,9 29,7 28,0 22,7 21 11 29 16 W 1014,2 10 0 0,0
01.08.2020 15:00:00 29,1 14,6 30,6 30,7 28,0 22,7 13 7 24 13 WNW 1014,2 60 0 0,0
01.08.2020 14:00:00 28,7 14,3 29,5 31,0 27,9 22,7 9 5 24 13 NW 1014,4 10 0 0,0
01.08.2020 13:00:00 29,7 13,6 30,8 32,1 27,5 22,7 15 8 31 17 NW 1014,4 10 2 0,0
01.08.2020 12:00:00 30,7 13,1 33,1 33,0 26,9 22,7 16 9 29 16 WNW 1014,2 10 26 0,0
01.08.2020 11:00:00 30,2 11,6 33,5 31,0 26,3 22,6 5 3 13 7 - 1014,4 10 55 0,0
01.08.2020 10:00:00 27,2 11,9 29,9 28,0 25,9 22,6 8 4 15 8 W 1014,6 10 52 0,0
01.08.2020 09:00:00 25,2 11,7 27,3 25,7 25,8 22,6 11 6 16 9 N 1013,8 10 60 0,0
01.08.2020 08:00:00 24,0 11,8 25,0 23,9 26,0 22,6 11 6 16 9 NE 1013,9 10 43 0,0
01.08.2020 07:00:00 22,0 11,8 21,3 23,6 26,3 22,6 11 6 16 9 N 1014,0 50 32 0,0
01.08.2020 06:00:00 21,4 11,9 20,0 23,8 26,7 22,5 13 7 21 11 NNE 1013,7 60 0 0,0
01.08.2020 05:00:00 20,9 12,1 18,8 24,3 27,1 22,5 8 4 16 8 NE 1013,8 10 0 0,0
01.08.2020 04:00:00 23,1 12,0 21,2 24,9 27,5 22,5 8 4 16 9 ENE 1014,1 10 0 0,0
01.08.2020 03:00:00 23,7 12,2 22,2 25,5 28,0 22,5 14 7 18 10 N 1014,3 60 0 0,0
01.08.2020 02:00:00 23,5 12,4 21,3 26,1 28,4 22,4 11 6 15 8 N 1014,8 60 0 0,0

tt = temperature
td = dewpoint
tt 5cm = temperature 5cm
tt -5cm = temperature -5cm
tt -20cm = temperature -20cm
tt -100cm = temperature -100cm
ff = wind speed
fx = gusts
dd = wind direction
ppp = reduced air pressure
vv = visibility
sd = sunshine duration
rr = precipitation

Next stations